TimeCEST,TemperatureF,Dew PointF,Humidity,Sea Level PressureIn,VisibilityMPH,Wind Direction,Wind SpeedMPH,Gust SpeedMPH,PrecipitationIn,Events,Conditions,WindDirDegrees,DateUTC
12:00 AM,57.2,53.6,88,30.04,6.2,Variable,2.3,-,N/A,,Overcast,0,2012-10-02 22:00:00
12:30 AM,57.2,53.6,88,30.04,5.0,Variable,2.3,-,N/A,,Mostly Cloudy,0,2012-10-02 22:30:00
1:00 AM,57.2,53.6,88,30.04,5.0,Variable,1.2,-,N/A,,Overcast,0,2012-10-02 23:00:00
1:30 AM,57.2,53.6,88,30.04,4.3,Variable,1.2,-,N/A,,Mostly Cloudy,0,2012-10-02 23:30:00
2:00 AM,56,54,91,30.04,4,,4.5,,,,Mist,,2012-10-03 00:00:00
2:00 AM,57.2,55.4,94,30.04,4.3,NNW,3.5,-,N/A,,Mostly Cloudy,340,2012-10-03 00:00:00
2:30 AM,57.2,53.6,88,30.04,3.7,North,3.5,-,N/A,,Mostly Cloudy,360,2012-10-03 00:30:00
3:00 AM,57.2,53.6,88,30.04,4.3,North,4.6,-,N/A,,Overcast,350,2012-10-03 01:00:00
3:30 AM,57.2,53.6,88,30.04,5.0,North,2.3,-,N/A,,Overcast,10,2012-10-03 01:30:00
4:00 AM,55.4,53.6,94,30.04,5.0,North,2.3,-,N/A,,Overcast,10,2012-10-03 02:00:00
4:30 AM,57.2,51.8,82,30.01,5.0,ENE,2.3,-,N/A,,Overcast,70,2012-10-03 02:30:00
5:00 AM,57.2,51.8,82,30.01,6.2,ENE,2.3,-,N/A,,Overcast,70,2012-10-03 03:00:00
5:30 AM,55.4,51.8,88,30.01,6.2,East,2.3,-,N/A,,Mostly Cloudy,100,2012-10-03 03:30:00
6:00 AM,55.4,51.8,88,30.01,6.2,Variable,1.2,-,N/A,,Overcast,0,2012-10-03 04:00:00
6:30 AM,55.4,51.8,88,30.01,6.2,NW,2.3,-,N/A,,Mostly Cloudy,310,2012-10-03 04:30:00
7:00 AM,53.6,51.8,94,30.01,4.3,West,3.5,-,N/A,,Mostly Cloudy,260,2012-10-03 05:00:00
7:30 AM,51.8,50.0,94,30.04,4.3,SW,2.3,-,N/A,,Partly Cloudy,230,2012-10-03 05:30:00
8:00 AM,51,50,96,30.05,4,SW,6.7,,,,Mist,220,2012-10-03 06:00:00
8:00 AM,51.8,50.0,94,30.04,4.3,SW,5.8,-,N/A,,Unknown,220,2012-10-03 06:00:00
8:30 AM,51.8,50.0,94,30.04,4.3,SW,5.8,-,N/A,,Unknown,220,2012-10-03 06:30:00
9:00 AM,53.6,51.8,94,30.04,3.7,WSW,4.6,-,N/A,,Partly Cloudy,240,2012-10-03 07:00:00
9:30 AM,55.4,51.8,88,30.04,3.7,WSW,5.8,-,N/A,,Scattered Clouds,240,2012-10-03 07:30:00
10:00 AM,55.4,51.8,88,30.06,5.0,WSW,5.8,-,N/A,,Mostly Cloudy,240,2012-10-03 08:00:00
10:30 AM,57.2,51.8,82,30.06,6.2,SW,4.6,-,N/A,,Mostly Cloudy,230,2012-10-03 08:30:00
11:00 AM,60.8,51.8,72,30.06,6.2,Variable,2.3,-,N/A,,Partly Cloudy,0,2012-10-03 09:00:00
11:30 AM,62.6,51.8,68,30.06,6.2,WSW,3.5,-,N/A,,Partly Cloudy,240,2012-10-03 09:30:00
12:00 PM,62.6,50.0,63,30.04,6.2,Variable,2.3,-,N/A,,Partly Cloudy,0,2012-10-03 10:00:00
12:30 PM,64.4,51.8,64,30.04,6.2,Variable,2.3,-,N/A,,Partly Cloudy,0,2012-10-03 10:30:00
1:00 PM,64.4,50.0,59,30.04,6.2,Variable,2.3,-,N/A,,Partly Cloudy,0,2012-10-03 11:00:00
1:30 PM,66.2,50.0,56,30.04,6.2,Variable,3.5,-,N/A,,Partly Cloudy,0,2012-10-03 11:30:00
2:00 PM,66,49,44,30.01,12,SSW,6.7,,,,Scattered Clouds,210,2012-10-03 12:00:00
2:00 PM,66.2,50.0,56,30.04,6.2,SSW,6.9,-,N/A,,Partly Cloudy,200,2012-10-03 12:00:00
2:30 PM,66.2,50.0,56,30.01,6.2,SW,8.1,-,N/A,,Partly Cloudy,230,2012-10-03 12:30:00
3:00 PM,66.2,51.8,60,30.01,6.2,SW,9.2,-,N/A,,Partly Cloudy,220,2012-10-03 13:00:00
3:30 PM,68.0,50.0,52,30.01,6.2,SSW,8.1,-,N/A,,Partly Cloudy,200,2012-10-03 13:30:00
4:00 PM,68.0,48.2,49,30.01,-9999.0,SSW,11.5,-,N/A,,Clear,210,2012-10-03 14:00:00
4:30 PM,66.2,46.4,49,30.01,-9999.0,SW,13.8,-,N/A,,Clear,220,2012-10-03 14:30:00
5:00 PM,66.2,48.2,52,30.01,-9999.0,SW,11.5,-,N/A,,Clear,220,2012-10-03 15:00:00
5:30 PM,64.4,48.2,56,30.01,-9999.0,SW,11.5,-,N/A,,Clear,220,2012-10-03 15:30:00
6:00 PM,62.6,48.2,59,30.01,-9999.0,SSW,10.4,-,N/A,,Clear,210,2012-10-03 16:00:00
6:30 PM,60.8,48.2,63,30.01,-9999.0,South,6.9,-,N/A,,Clear,190,2012-10-03 16:30:00
7:00 PM,60.8,48.2,63,30.01,-9999.0,South,5.8,-,N/A,,Clear,190,2012-10-03 17:00:00
7:30 PM,59.0,48.2,67,30.01,-9999.0,South,5.8,-,N/A,,Clear,170,2012-10-03 17:30:00
8:00 PM,58,47,58,30.02,12,,2.2,,,,,,2012-10-03 18:00:00
8:00 PM,57.2,48.2,72,30.01,-9999.0,Variable,2.3,-,N/A,,Clear,0,2012-10-03 18:00:00
8:30 PM,55.4,48.2,77,30.01,-9999.0,WSW,3.5,-,N/A,,Clear,240,2012-10-03 18:30:00
9:00 PM,55.4,48.2,77,30.04,-9999.0,WSW,3.5,-,N/A,,Clear,240,2012-10-03 19:00:00
9:30 PM,55.4,48.2,77,30.04,-9999.0,SSW,3.5,-,N/A,,Clear,200,2012-10-03 19:30:00
10:00 PM,55.4,48.2,77,30.04,-9999.0,SSW,4.6,-,N/A,,Clear,210,2012-10-03 20:00:00
10:30 PM,51.8,48.2,88,30.04,-9999.0,South,4.6,-,N/A,,Clear,190,2012-10-03 20:30:00
11:00 PM,48.2,44.6,87,30.04,-9999.0,WSW,5.8,-,N/A,,Clear,240,2012-10-03 21:00:00
11:30 PM,48.2,44.6,87,30.04,-9999.0,SW,2.3,-,N/A,,Clear,230,2012-10-03 21:30:00